Location: Unspecified
(43.3830°N, 0.0000°E)
Time: 03:22:33
(UTC+00:00)

Transit 2A - Visible Passes

Search period start: 17 June 2019 00:00
Search period end: 27 June 2019 00:00
Orbit: 593 x 966 km, 66.7° (Epoch: 16 June)

Date Brightness Start Highest point End Pass type
(mag) Time Alt. Az. Time Alt. Az. Time Alt. Az.
17 Jun 6.4 01:35:41 35° SSW 01:38:37 87° ESE 01:44:59 10° NNE visible
17 Jun 8.1 03:17:42 10° W 03:22:41 23° NW 03:27:35 10° NNE visible
17 Jun 8.6 23:21:53 10° ESE 23:22:24 10° E 23:23:27 10° E visible
18 Jun 6.6 01:02:21 41° S 01:04:32 65° ESE 01:10:48 10° NE visible
18 Jun 7.8 02:42:50 10° WSW 02:48:16 29° NW 02:53:41 10° NNE visible
19 Jun 6.9 00:28:59 40° SSE 00:30:31 47° ESE 00:36:32 10° NE visible
19 Jun 7.5 02:09:28 17° WSW 02:13:56 38° NW 02:19:45 10° NNE visible
19 Jun 7.3 23:55:34 32° SE 23:56:32 34° ESE 00:02:09 10° NE visible
20 Jun 7.1 01:36:02 24° WSW 01:39:40 50° NW 01:45:45 10° NNE visible
20 Jun 8.7 03:21:08 10° WNW 03:24:26 14° NNW 03:27:39 10° N visible
20 Jun 7.7 23:22:07 24° ESE 23:22:38 24° ESE 23:27:35 10° NE visible
21 Jun 6.7 01:02:35 34° SW 01:05:27 66° NW 01:11:43 10° NNE visible
21 Jun 8.5 02:45:44 10° WNW 02:49:53 18° NW 02:53:57 10° N visible
21 Jun 8.1 22:48:36 17° ESE 22:48:47 17° ESE 22:52:42 10° ENE visible
22 Jun 6.4 00:29:03 44° SSW 00:31:18 88° WNW 00:37:37 10° NNE visible
22 Jun 8.3 02:10:34 10° W 02:15:24 22° NW 02:20:09 10° N visible
22 Jun 8.4 22:15:01 12° E 22:15:01 12° E 22:16:58 10° E visible
22 Jun 6.4 23:55:29 49° S 23:57:12 70° ESE 00:03:28 10° NE visible
23 Jun 8.0 01:35:56 11° W 01:40:59 28° NW 01:46:16 10° NNE visible
23 Jun 6.7 23:21:50 44° SSE 23:23:09 51° ESE 23:29:14 10° NE visible
24 Jun 7.6 01:02:17 17° WSW 01:06:39 36° NW 01:12:21 10° NNE visible
24 Jun 8.9 02:50:05 10° NW 02:51:47 11° NNW 02:53:29 10° N visible
24 Jun 7.1 22:48:06 34° SE 22:49:10 36° ESE 22:54:52 10° NE visible
25 Jun 7.2 00:28:33 22° WSW 00:32:21 47° NW 00:38:22 10° NNE visible
25 Jun 8.8 02:14:10 10° WNW 02:17:11 14° NNW 02:20:08 10° N visible
25 Jun 7.5 22:14:19 25° ESE 22:15:15 26° ESE 22:20:20 10° NE visible
25 Jun 6.8 23:54:44 28° SW 23:58:07 62° NW 00:04:20 10° NNE visible
26 Jun 8.7 01:38:41 10° WNW 01:42:37 17° NW 01:46:28 10° N visible
26 Jun 7.8 21:40:23 18° ESE 21:41:22 19° ESE 21:45:33 10° ENE visible
26 Jun 6.4 23:20:49 32° SW 23:23:58 83° WNW 23:30:16 10° NNE visible
